Panakton, Greece

12:46 PM EET on February 22, 2017 (GMT +0200)
Elefsis Air Base

Weather History for LGEL - December, 2011

Change the Weather History Date:

Friday, December 23, 2011

  Actual Average Record
Temperature  
Mean Temperature 44 °F -  
Max Temperature 46 °F 54 °F 66 °F (2010)
Min Temperature 41 °F 41 °F 35 °F (2007)
Degree Days  
Heating Degree Days 22    
Moisture  
Dew Point 36 °F    
Average Humidity 76    
Maximum Humidity 87    
Minimum Humidity 66    
Precipitation  
Precipitation 0.00 in - - ()
Sea Level Pressure  
Sea Level Pressure 29.81 in    
Wind  
Wind Speed 16 mph ()    
Max Wind Speed 29 mph    
Max Gust Speed 45 mph    
Visibility 5.5 miles    
Events Rain    
Averages and records for this station are not official NWS values.
T = Trace of Precipitation, MM = Missing Value Source: Averaged Metar Reports

Daily Weather History Graph

Daily Weather History Graph

Search for Another Location

Airport or City:

Trip Planner

Search our weather history database for the weather conditions in past years. The results will help you decide how hot, cold, wet, or windy it might be!

Date:

Astronomy

Dec. 23, 2011 Rise Set
Actual Time 7:39 AM EET 5:10 PM EET
Civil Twilight 7:09 AM EET 5:39 PM EET
Nautical Twilight 6:36 AM EET 6:12 PM EET
Astronomical Twilight 6:04 AM EET 6:45 PM EET
Moon 6:08 AM EET (12/23) 4:00 PM EET (12/23)
Length of Visible Light 10h 30m
Length of Day
9h 31m
Waning Crescent, 2% of the Moon is Illuminated
Dec 23
Waning Crescent
Dec 24
New
Jan 1
First Quarter
Jan 9
Full
Jan 16
Last Quarter

Hourly Weather History & Observations

Time (EET) Temp. Windchill Dew Point Humidity Pressure Visibility Wind Dir Wind Speed Gust Speed Precip Events Conditions
12:20 AM 41.0 °F 32.8 °F 33.8 °F 76% 29.65 in 6.2 mi NNW 16.1 mph 27.6 mph N/A   Overcast
12:50 AM 41.0 °F 32.5 °F 33.8 °F 76% 29.68 in 6.2 mi NNW 17.3 mph 28.8 mph N/A Rain Light Rain
1:20 AM 41.0 °F 32.2 °F 33.8 °F 76% 29.68 in 6.2 mi North 18.4 mph 29.9 mph N/A Rain Light Rain
1:50 AM 41.0 °F 32.2 °F 33.8 °F 76% 29.65 in 6.2 mi NNW 18.4 mph 29.9 mph N/A Rain Light Rain
2:20 AM 41.0 °F 32.5 °F 33.8 °F 76% 29.65 in 6.2 mi NNW 17.3 mph 28.8 mph N/A   Overcast
2:50 AM 41.0 °F 32.2 °F 33.8 °F 76% 29.65 in 6.2 mi NW 18.4 mph 29.9 mph N/A   Mostly Cloudy
3:20 AM 41.0 °F 31.9 °F 33.8 °F 76% 29.65 in 6.2 mi NNW 19.6 mph 31.1 mph N/A   Mostly Cloudy
3:50 AM 41.0 °F 31.9 °F 33.8 °F 76% 29.65 in 6.2 mi NNW 19.6 mph 31.1 mph N/A   Mostly Cloudy
4:20 AM 41.0 °F 32.5 °F 33.8 °F 76% 29.65 in 6.2 mi NW 17.3 mph 28.8 mph N/A   Mostly Cloudy
4:50 AM 41.0 °F 32.5 °F 33.8 °F 76% 29.68 in 6.2 mi NW 17.3 mph 31.1 mph N/A   Mostly Cloudy
5:20 AM 41.0 °F 33.5 °F 33.8 °F 76% 29.68 in 6.2 mi WNW 13.8 mph - N/A   Mostly Cloudy
5:50 AM 41.0 °F 33.5 °F 33.8 °F 76% 29.68 in 6.2 mi NW 13.8 mph - N/A   Mostly Cloudy
6:20 AM 41.0 °F 32.8 °F 33.8 °F 76% 29.68 in 6.2 mi NW 16.1 mph 27.6 mph N/A   Mostly Cloudy
6:50 AM 41.0 °F 32.8 °F 33.8 °F 76% 29.71 in 6.2 mi NW 16.1 mph 29.9 mph N/A Rain Light Rain
7:20 AM 41.0 °F 34.3 °F 33.8 °F 76% 29.71 in 4.3 mi NW 11.5 mph 28.8 mph N/A Rain Light Rain
7:50 AM 41.0 °F 33.9 °F 35.6 °F 81% 29.71 in 5.0 mi NW 12.7 mph 27.6 mph N/A Rain Light Rain
8:20 AM 41.0 °F 33.1 °F 35.6 °F 81% 29.71 in 5.0 mi NW 15.0 mph 26.5 mph N/A Rain Light Rain
8:50 AM 41.0 °F 33.9 °F 35.6 °F 81% 29.74 in 4.3 mi NW 12.7 mph - N/A Rain Light Rain
9:20 AM 41.0 °F 32.8 °F 35.6 °F 81% 29.74 in 4.3 mi NNW 16.1 mph 29.9 mph N/A Rain Light Rain
9:50 AM 42.8 °F 34.3 °F 35.6 °F 76% 29.74 in 4.3 mi NNW 19.6 mph 40.3 mph N/A Rain Light Rain
10:20 AM 42.8 °F 35.4 °F 35.6 °F 76% 29.74 in 4.3 mi NNW 15.0 mph 29.9 mph N/A Rain Light Rain
10:50 AM 42.8 °F 36.6 °F 39.2 °F 87% 29.80 in 4.3 mi NW 11.5 mph 31.1 mph N/A Rain Light Rain
11:20 AM 42.8 °F 32.9 °F 37.4 °F 81% 29.80 in 3.1 mi NNW 26.5 mph 44.9 mph N/A Rain Light Rain
11:50 AM 44.6 °F 35.1 °F 37.4 °F 76% 29.80 in 3.1 mi NNW 27.6 mph 42.6 mph N/A Rain Light Rain
12:20 PM 44.6 °F 35.1 °F 37.4 °F 76% 29.80 in 3.1 mi North 27.6 mph 40.3 mph N/A Rain Light Rain
12:50 PM 44.6 °F 35.1 °F 39.2 °F 81% 29.80 in 3.7 mi NNW 27.6 mph 40.3 mph N/A Rain Light Rain
1:20 PM 44.6 °F 35.5 °F 39.2 °F 81% 29.80 in 3.7 mi NNW 25.3 mph 36.8 mph N/A Rain Light Rain
1:50 PM 44.6 °F 34.9 °F 39.2 °F 81% 29.80 in 5.0 mi NNW 28.8 mph 40.3 mph N/A Rain Light Rain
2:20 PM 42.8 °F 32.5 °F 37.4 °F 81% 29.80 in 5.0 mi NNW 28.8 mph 40.3 mph N/A Rain Light Rain
2:50 PM 44.6 °F 34.9 °F 39.2 °F 81% 29.83 in 5.0 mi North 28.8 mph 43.7 mph N/A Rain Light Rain
3:20 PM 46.4 °F 38.3 °F 41.0 °F 81% 29.83 in 5.6 mi North 23.0 mph 38.0 mph N/A Rain Light Rain
3:50 PM 46.4 °F 41.1 °F 41.0 °F 81% 29.86 in 5.0 mi NNW 11.5 mph 29.9 mph N/A   Drizzle
4:20 PM 46.4 °F 40.1 °F 41.0 °F 81% 29.86 in 5.0 mi NNW 15.0 mph 26.5 mph N/A   Drizzle
4:50 PM 46.4 °F 39.8 °F 39.2 °F 76% 29.89 in 6.2 mi NNW 16.1 mph 27.6 mph N/A   Mostly Cloudy
5:20 PM 44.6 °F 37.2 °F 37.4 °F 76% 29.89 in 6.2 mi North 17.3 mph 28.8 mph N/A   Mostly Cloudy
5:50 PM 46.4 °F 40.4 °F 37.4 °F 71% 29.92 in 6.2 mi North 13.8 mph 25.3 mph N/A   Mostly Cloudy
6:20 PM 46.4 °F 41.1 °F 37.4 °F 71% 29.92 in 6.2 mi NNW 11.5 mph 27.6 mph N/A   Mostly Cloudy
6:50 PM 46.4 °F 39.2 °F 37.4 °F 71% 29.95 in 6.2 mi North 18.4 mph 29.9 mph N/A   Mostly Cloudy
7:20 PM 46.4 °F 40.7 °F 37.4 °F 71% 29.95 in 6.2 mi NNW 12.7 mph 24.2 mph N/A   Mostly Cloudy
7:50 PM 46.4 °F 41.1 °F 35.6 °F 66% 29.95 in 6.2 mi NNW 11.5 mph 23.0 mph N/A   Mostly Cloudy
8:20 PM 46.4 °F 40.7 °F 35.6 °F 66% 29.95 in 6.2 mi NW 12.7 mph 24.2 mph N/A   Mostly Cloudy
8:50 PM 46.4 °F 41.5 °F 35.6 °F 66% 29.98 in 6.2 mi NNW 10.4 mph - N/A   Mostly Cloudy
9:20 PM 44.6 °F 38.1 °F 37.4 °F 76% 29.98 in 6.2 mi NNW 13.8 mph - N/A   Mostly Cloudy
9:50 PM 46.4 °F 41.5 °F 35.6 °F 66% 30.01 in 6.2 mi NNW 10.4 mph - N/A   Mostly Cloudy
10:20 PM 46.4 °F 42.4 °F 35.6 °F 66% 30.01 in 6.2 mi NNW 8.1 mph - N/A   Mostly Cloudy
10:50 PM 46.4 °F 41.9 °F 35.6 °F 66% 30.01 in 6.2 mi North 9.2 mph - N/A   Mostly Cloudy
11:20 PM 46.4 °F 42.4 °F 35.6 °F 66% 30.01 in 6.2 mi NNW 8.1 mph - N/A   Mostly Cloudy
11:50 PM 44.6 °F 41.4 °F 37.4 °F 76% 30.04 in 6.2 mi NW 5.8 mph - N/A   Mostly Cloudy